Powrót do katalogu

STARLINK-3990

AktywnyŁącznośćVLEO
NORAD 52626·PAYLOAD·🇺🇸 United States

Wystrzelony May 14, 2022 z Cape Canaveral Space Force Station

Loading…

Następne Przeloty (najbliższe 24 godziny)

TLE

ŚwieżeSource: CelesTrak SupGP

Epoka: Sep 15, 2026, 01:31 UTC

1 52626C 22052AE  26258.06368056  .00048762  00000+0  14409-2 0  2583
2 52626  53.1592 126.8789 0001002  80.3928 116.4277 15.34362122    10

Śledź STARLINK-3990 w czasie rzeczywistym z AllMySat

Download on the App Store